Flag for Canada Weather past 2 weeks in Churchill, Manitoba, Canada

-2 °F

Light snow. Passing clouds.

Feels Like: -19 °F
Forecast: -8 / -1 °F
Wind: 10 mph from Northwest

Location: Churchill

Current Time: Nov 25, 2015 at 9:49:12 PM

Latest Report: Nov 25, 2015 at 9:00 PM

Visibility: 15 mi

Pressure: 30.24 "Hg

Humidity: 84%

Dew point: -6 °F

Location of ChurchillLocation

Historic Weather in Churchill — Graph


Churchill temperature yesterday

Maximum temperature yesterday: 0 °F (at 8:00 AM)
Minimum temperature yesterday: -6 °F (at 12:00 AM)
Average temperature yesterday: -3 °F

Past Weeks' High & Low Weather Summary

High34 °F (Nov 12, 2:00 PM)100% (Nov 11, 5:00 AM)30.43 "Hg (Nov 11, 5:00 AM)
Low-9 °F (Nov 21, 6:00 AM)75% (Nov 12, 2:00 PM)29.30 "Hg (Nov 19, 4:00 AM)
Average15 °F88%29.85 "Hg
* Reported Nov 10 8:00 PM — Nov 25 8:00 PM, Churchill, Weather by CustomWeather, © 2015

Note: Actual official high and low records may vary slightly from our data, if they occured in-between our weather recording intervals... More about our weather records


Churchill weather history for previous 24 hours

Time TempWeatherWind HumidityBarometerVisibility
8:00 PM
Wed, Nov 25
-2 °FLight snow. Mostly cloudy.12 mph84%30.23 "Hg15 mi
7:00 PM0 °FLight snow. Mostly cloudy.14 mph84%30.23 "Hg15 mi
6:00 PM-2 °FLight snow. Overcast.10 mph84%30.23 "Hg15 mi
5:00 PM-2 °FPassing clouds.15 mph84%30.22 "Hg15 mi
4:00 PM-2 °FOvercast.13 mph84%30.22 "Hg15 mi
3:00 PM-2 °FOvercast.12 mph84%30.21 "Hg15 mi
2:00 PM-2 °FLow clouds.10 mph84%30.22 "Hg15 mi
1:00 PM-2 °FLight snow. Low clouds.12 mph84%30.22 "Hg10 mi
12:00 PM-2 °FLight snow. Low clouds.10 mph92%30.24 "Hg3 mi
11:00 AM-4 °FPartly sunny.9 mph84%30.25 "Hg15 mi
10:00 AM-6 °FPassing clouds.7 mph84%30.25 "Hg15 mi
9:00 AM-6 °FPassing clouds.7 mph84%30.26 "Hg15 mi
8:00 AM-8 °FPassing clouds.7 mph84%30.27 "Hg15 mi
7:00 AM-8 °FSnow flurries. Passing clouds.6 mph84%30.27 "Hg15 mi
6:00 AM-6 °FSnow flurries. Passing clouds.7 mph84%30.28 "Hg15 mi
5:00 AM-6 °FSnow flurries. Passing clouds.6 mph84%30.30 "Hg15 mi
4:00 AM-6 °FSnow flurries. Passing clouds.6 mph84%30.31 "Hg15 mi
3:00 AM-4 °FPassing clouds.6 mph84%30.33 "Hg15 mi
2:00 AM0 °FMostly cloudy.7 mph84%30.34 "Hg15 mi
1:00 AM0 °FMostly cloudy.7 mph84%30.35 "Hg15 mi
12:00 AM-2 °FPassing clouds.6 mph84%30.37 "Hg15 mi
11:00 PM
Tue, Nov 24
0 °FPassing clouds.8 mph84%30.37 "Hg15 mi
10:00 PM0 °FOvercast.8 mph84%30.38 "Hg15 mi
9:00 PM0 °FMostly cloudy.7 mph84%30.38 "Hg15 mi
Weather by CustomWeather, © 2015

See weather overviewHow to use our weather pages